Victoria, TX

8:12 AM CST on December 08, 2019 (GMT -0600)
Victoria Regional

Weather History for KVCT - October, 2019

Change the Weather History Date:

Friday, October 25, 2019

  Actual Average Record
Temperature  
Mean Temperature 57 °F 70 °F  
Max Temperature 66 °F 81 °F 95 °F (1926)
Min Temperature 48 °F 59 °F 37 °F (2005)
Degree Days  
Heating Degree Days 8 1  
Month to date heating degree days 8 10  
Since 1 July heating degree days 8 11  
Cooling Degree Days 0 6  
Month to date cooling degree days 284 211  
Year to date cooling degree days 3549 3009  
Growing Degree Days 7 (Base 50)    
Moisture  
Dew Point 47 °F    
Average Humidity 77    
Maximum Humidity 93    
Minimum Humidity 47    
Precipitation  
Precipitation 0.54 in 0.15 in 1.98 in (1975)
Month to date precipitation 2.32 3.85  
Year to date precipitation 21.68 34.88  
Snow  
Snow - 0.00 in 0.00 in (2002)
Month to date snowfall 0.0 0.0  
Since 1 July snowfall 0.0 0.0  
Since 1 September snowfall 0.0 0.0  
Snow Depth 0.00 in    
Sea Level Pressure  
Sea Level Pressure 30.03 in    
Wind  
Wind Speed 18 mph ()    
Max Wind Speed 30 mph    
Max Gust Speed 38 mph    
Visibility 8.8 miles    
Events Rain    
T = Trace of Precipitation, MM = Missing Value Source: Averaged Metar Reports

Daily Weather History Graph

Daily Weather History Graph

Search for Another Location

Airport or City:

Astronomy

Oct. 25, 2019 Rise Set
Actual Time 7:34 AM CDT 6:48 PM CDT
Civil Twilight 7:10 AM CDT 7:12 PM CDT
Nautical Twilight 6:43 AM CDT 7:39 PM CDT
Astronomical Twilight 6:15 AM CDT 8:07 PM CDT
Moon 4:41 AM CDT (10/25) 5:32 PM CDT (10/25)
Length of Visible Light 12h 01m
Length of Day
11h 13m
Waning Crescent, 9% of the Moon is Illuminated
Oct 25
Waning Crescent
Oct 27
New
Nov 4
First Quarter
Nov 12
Full
Nov 19
Last Quarter

Hourly Weather History & Observations

Time (CDT) Temp. Dew Point Humidity Pressure Visibility Wind Dir Wind Speed Gust Speed Precip Events Conditions
12:07 AM 57.9 °F 55.9 °F 93% 29.98 in 4.0 mi NNW 20.7 mph 32.2 mph 0.10 in Rain Rain
12:24 AM 57.0 °F 55.0 °F 93% 29.99 in 5.0 mi NNW 17.3 mph 26.5 mph 0.14 in Rain Heavy Rain
12:51 AM 55.9 °F 53.1 °F 90% 30.00 in 7.0 mi NNW 23.0 mph 32.2 mph 0.24 in Rain Light Rain
1:07 AM 55.0 °F 52.0 °F 89% 30.00 in 10.0 mi NNW 23.0 mph 34.5 mph 0.00 in Rain Light Rain
1:30 AM 55.0 °F 52.0 °F 89% 30.00 in 2.5 mi NNW 20.7 mph 28.8 mph 0.03 in Rain Heavy Rain
1:44 AM 54.0 °F 52.0 °F 93% 30.01 in 4.0 mi NNW 18.4 mph 33.4 mph 0.12 in Rain Rain
1:51 AM 54.0 °F 52.0 °F 93% 30.00 in 5.0 mi NNW 24.2 mph 29.9 mph 0.13 in Rain Rain
2:02 AM 54.0 °F 52.0 °F 93% 30.01 in 2.0 mi NNW 17.3 mph 27.6 mph 0.09 in Rain Heavy Rain
2:12 AM 54.0 °F 52.0 °F 93% 30.00 in 6.0 mi North 17.3 mph 25.3 mph 0.13 in Rain Rain
2:34 AM 53.1 °F 51.1 °F 93% 30.01 in 10.0 mi North 13.8 mph 23.0 mph 0.14 in   Overcast
2:51 AM 53.1 °F 51.1 °F 93% 30.02 in 10.0 mi North 13.8 mph 20.7 mph 0.14 in   Overcast
3:51 AM 52.0 °F 48.9 °F 89% 29.99 in 10.0 mi NNW 26.5 mph 35.7 mph 0.03 in   Overcast
3:56 AM 52.0 °F 48.9 °F 89% 29.99 in 10.0 mi NNW 21.9 mph 35.7 mph N/A   Overcast
4:43 AM 51.1 °F 46.9 °F 86% 30.00 in 10.0 mi NNW 20.7 mph 34.5 mph N/A   Overcast
4:51 AM 51.1 °F 48.0 °F 89% 30.00 in 10.0 mi NNW 15.0 mph 27.6 mph N/A   Overcast
5:21 AM 51.1 °F 46.9 °F 86% 30.00 in 10.0 mi North 21.9 mph 31.1 mph N/A   Overcast
5:51 AM 50.0 °F 46.0 °F 86% 30.01 in 10.0 mi NNW 19.6 mph 35.7 mph N/A   Overcast
6:17 AM 50.0 °F 45.0 °F 83% 30.02 in 10.0 mi North 21.9 mph 31.1 mph N/A   Mostly Cloudy
6:38 AM 50.0 °F 46.0 °F 86% 30.03 in 10.0 mi NNW 21.9 mph 29.9 mph N/A   Mostly Cloudy
6:51 AM 50.0 °F 45.0 °F 83% 30.03 in 10.0 mi NNW 25.3 mph 33.4 mph N/A   Overcast
7:51 AM 48.9 °F 43.0 °F 80% 30.04 in 10.0 mi NNW 29.9 mph 36.8 mph N/A   Overcast
8:51 AM 50.0 °F 43.0 °F 77% 30.09 in 10.0 mi NNW 19.6 mph 29.9 mph N/A   Overcast
9:41 AM 52.0 °F 43.0 °F 71% 30.10 in 10.0 mi NNW 24.2 mph 35.7 mph N/A   Scattered Clouds
9:51 AM 52.0 °F 43.0 °F 71% 30.09 in 10.0 mi NNW 27.6 mph 38.0 mph N/A   Partly Cloudy
10:51 AM 55.0 °F 43.0 °F 64% 30.10 in 10.0 mi NNW 26.5 mph 35.7 mph N/A   Overcast
11:51 AM 57.0 °F 43.0 °F 59% 30.10 in 10.0 mi NNW 25.3 mph 31.1 mph N/A   Overcast
12:51 PM 60.1 °F 44.1 °F 55% 30.07 in 10.0 mi NNW 21.9 mph 34.5 mph N/A   Scattered Clouds
1:51 PM 63.0 °F 44.1 °F 50% 30.03 in 10.0 mi NNW 21.9 mph 33.4 mph N/A   Clear
2:51 PM 64.9 °F 44.1 °F 47% 30.01 in 10.0 mi NW 24.2 mph 31.1 mph N/A   Clear
3:51 PM 64.9 °F 44.1 °F 47% 30.01 in 10.0 mi NNW 20.7 mph 33.4 mph N/A   Clear
4:51 PM 64.0 °F 44.1 °F 48% 30.00 in 10.0 mi NNW 20.7 mph 27.6 mph N/A   Clear
5:51 PM 63.0 °F 44.1 °F 50% 30.00 in 10.0 mi NW 20.7 mph 29.9 mph N/A   Clear
6:51 PM 59.0 °F 44.1 °F 58% 30.01 in 10.0 mi NW 16.1 mph 26.5 mph N/A   Clear
7:51 PM 55.9 °F 43.0 °F 62% 30.04 in 10.0 mi NNW 13.8 mph - N/A   Clear
8:51 PM 53.1 °F 43.0 °F 69% 30.05 in 10.0 mi NNW 9.2 mph - N/A   Clear
9:51 PM 52.0 °F 43.0 °F 71% 30.06 in 10.0 mi NNW 11.5 mph - N/A   Clear
10:51 PM 51.1 °F 42.1 °F 71% 30.05 in 10.0 mi NW 11.5 mph - N/A   Clear
11:51 PM 48.9 °F 42.1 °F 77% 30.03 in 10.0 mi NW 11.5 mph - N/A   Clear